(223717) = 2004 RG92

Discovered at Socorro on 2004-09-08 by LINEAR.

Orbit

Orbit type: Main Belt

Note: WebGL enabled browser required.

epoch2023-09-13.0
epoch JD2460200.5
perihelion date2023-03-16.08603
perihelion JD2460019.58603
argument of perihelion (°)166.10517
ascending node (°)205.12844
inclination (°)4.37571
eccentricity0.1416053
perihelion distance (AU)2.3604852
Tisserand w.r.t. Jupiter3.3
ΔV w.r.t. Earth (km/sec)9.7
semimajor axis (AU)2.7498834
mean anomaly (°)39.10250
mean daily motion (°/day)0.21613860
aphelion distance (AU)3.139
period (years)4.56
P-vector [x]0.98054382
P-vector [y]0.17202783
P-vector [z]0.09455290
Q-vector [x]-0.19360816
Q-vector [y]0.92701463
Q-vector [z]0.32118493
absolute magnitude16.49
phase slope0.15
uncertainty0
referenceMPEC 2023-Y111
observations used430
oppositions14
arc length (days)8433
first opposition used2000
last opposition used2023
residual rms (arc-secs)0.77
perturbers coarse indicatorM-v
perturbers precise indicator003Ek
first observation date used2000-11-27.0
last observation date used2023-12-30.0
computer nameMPCLINUX
JD of orbit computation2456670.670419
perihelion JD uncertainty (days)9.8032E-05
argument of perihelion uncertainty (°)7.4400E-05
ascending node uncertainty (°)7.1304E-05
inclination uncertainty (°)4.8544E-06
eccentricity uncertainty 5.5125E-08
perihelion distance uncertainty (AU)1.6269E-07
Minimum Orbit Intersection Distances (in AU)
for orbit epoch: 2460200.5, reference: E2023-YB1
Mercury2.00898
Venus1.63741
Earth1.36
Mars0.94289
Jupiter2.3203
Saturn6.27268
Uranus15.341
Neptune27.417

Observations

436 total observations over interval: 2000 11 27.22593 – 2023 12 30.480064
These data are available for download (format description).

Date (UT) J2000 RA J2000 Dec Magn Location Ref
2000 11 27.22593 04 00 56.12 +16 08 29.6 19.0   704 – Lincoln Laboratory ETS, New Mexico MPS 115314
2000 11 27.25476 04 00 54.48 +16 08 22.2 19.1   704 – Lincoln Laboratory ETS, New Mexico MPS 115314
2000 11 27.26918 04 00 53.65 +16 08 19.1 19.3   704 – Lincoln Laboratory ETS, New Mexico MPS 115314
2000 11 27.28361 04 00 52.82 +16 08 14.6 19.7   704 – Lincoln Laboratory ETS, New Mexico MPS 115314
2000 11 30.28467 03 58 09.53 +15 56 26.4 18.9 R 699 – Lowell Observatory-LONEOS MPS 115314
2000 11 30.30181 03 58 08.50 +15 56 26.1   699 – Lowell Observatory-LONEOS MPS 115314
2000 11 30.31896 03 58 07.60 +15 56 20.6   699 – Lowell Observatory-LONEOS MPS 115314
2000 11 30.33612 03 58 06.52 +15 56 17.1   699 – Lowell Observatory-LONEOS MPS 115314
2000 12 30.06865 03 39 49.00 +14 47 21.6 20.7 V 691 – Steward Observatory, Kitt Peak-Spacewatch MPS 115314
2000 12 30.09564 03 39 48.58 +14 47 20.7 20.8 V 691 – Steward Observatory, Kitt Peak-Spacewatch MPS 115314
2000 12 30.12242 03 39 48.15 +14 47 20.1 20.8 V 691 – Steward Observatory, Kitt Peak-Spacewatch MPS 115314
2004 08 11.33931 23 01 48.18 -00 15 29.2 20.2   704 – Lincoln Laboratory ETS, New Mexico MPS 114465
2004 08 11.34922 23 01 47.85 -00 15 31.6 20.3   704 – Lincoln Laboratory ETS, New Mexico MPS 114465
2004 08 11.35908 23 01 47.52 -00 15 34.2 20.7   704 – Lincoln Laboratory ETS, New Mexico MPS 114465
2004 08 11.36896 23 01 47.18 -00 15 35.9 20.5   704 – Lincoln Laboratory ETS, New Mexico MPS 114465
2004 09 08.18113 22 42 33.93 -02 42 28.8 19.0   704 – Lincoln Laboratory ETS, New Mexico MPS 113102
2004 09 08.19205 22 42 33.39 -02 42 32.9 19.0   704 – Lincoln Laboratory ETS, New Mexico MPS 113102
2004 09 08.20310 22 42 32.88 -02 42 37.8 19.3   704 – Lincoln Laboratory ETS, New Mexico MPS 113102
2004 09 08.21413 22 42 32.36 -02 42 41.9 19.3   704 – Lincoln Laboratory ETS, New Mexico MPS 113102
2004 09 08.22507 22 42 31.83 -02 42 45.2 19.1   704 – Lincoln Laboratory ETS, New Mexico MPS 113102
2004 09 10.23279 22 41 01.34 -02 56 03.5 19.4   704 – Lincoln Laboratory ETS, New Mexico MPS 113102
2004 09 10.24461 22 41 00.77 -02 56 07.5 19.2   704 – Lincoln Laboratory ETS, New Mexico MPS 113102
2004 09 10.25638 22 41 00.28 -02 56 12.1 19.3   704 – Lincoln Laboratory ETS, New Mexico MPS 113102
2004 09 10.26839 22 40 59.65 -02 56 17.1 19.3   704 – Lincoln Laboratory ETS, New Mexico MPS 113102
2004 09 10.28068 22 40 59.10 -02 56 21.6 19.8   704 – Lincoln Laboratory ETS, New Mexico MPS 113102
2004 09 13.23123 22 38 49.90 -03 15 58.0 19.6 V 691 – Steward Observatory, Kitt Peak-Spacewatch MPS 113102
2004 09 13.25835 22 38 48.67 -03 16 08.6 19.5 V 691 – Steward Observatory, Kitt Peak-Spacewatch MPS 113102
2004 09 13.28617 22 38 47.41 -03 16 19.7 19.6 V 691 – Steward Observatory, Kitt Peak-Spacewatch MPS 113102
2004 09 18.25839 22 35 23.14 -03 48 58.3 20.3   704 – Lincoln Laboratory ETS, New Mexico MPS 114465
2004 09 18.27059 22 35 22.65 -03 49 04.0 20.5   704 – Lincoln Laboratory ETS, New Mexico MPS 114465
2004 09 18.28272 22 35 22.11 -03 49 08.6 20.0   704 – Lincoln Laboratory ETS, New Mexico MPS 114465
2004 09 18.29493 22 35 21.65 -03 49 11.6 20.0   704 – Lincoln Laboratory ETS, New Mexico MPS 114465
2005 12 21.39933 07 51 18.31 +14 24 06.2   291 – LPL/Spacewatch II MPS 155921
2005 12 21.40322 07 51 18.14 +14 24 06.6   291 – LPL/Spacewatch II MPS 155921
2005 12 21.40725 07 51 17.98 +14 24 06.5   291 – LPL/Spacewatch II MPS 155921
2005 12 27.34304 07 46 38.01 +14 29 01.6   691 – Steward Observatory, Kitt Peak-Spacewatch MPS 156582
2005 12 27.36037 07 46 37.15 +14 29 02.7   691 – Steward Observatory, Kitt Peak-Spacewatch MPS 156582
2005 12 27.37777 07 46 36.24 +14 29 04.2   691 – Steward Observatory, Kitt Peak-Spacewatch MPS 156582
2006 01 04.27637 07 39 34.58 +14 40 17.7 20.4 V 691 – Steward Observatory, Kitt Peak-Spacewatch MPS 157768
2006 01 04.29899 07 39 33.27 +14 40 19.7 20.3 V 691 – Steward Observatory, Kitt Peak-Spacewatch MPS 157768
2006 01 04.32161 07 39 31.98 +14 40 22.2 20.4 V 691 – Steward Observatory, Kitt Peak-Spacewatch MPS 157768
2007 04 16.24504 12 30 58.89 -04 41 18.7 20.9 V G96 – Mt. Lemmon Survey MPS 206897
2007 04 16.25369 12 30 58.53 -04 41 16.0 21.9 V G96 – Mt. Lemmon Survey MPS 206897
2007 04 16.26245 12 30 58.17 -04 41 12.6 21.3 V G96 – Mt. Lemmon Survey MPS 206897
2007 04 16.27115 12 30 57.74 -04 41 09.6 21.1 V G96 – Mt. Lemmon Survey MPS 206897
2007 05 10.21667 12 18 22.57 -02 48 15.7 21.4 V G96 – Mt. Lemmon Survey MPS 208910
2007 05 10.22534 12 18 22.35 -02 48 13.4 21.7 V G96 – Mt. Lemmon Survey MPS 208910
2007 05 10.23405 12 18 22.21 -02 48 12.1 21.5 V G96 – Mt. Lemmon Survey MPS 208910
2007 05 10.24293 12 18 22.03 -02 48 10.6 21.8 V G96 – Mt. Lemmon Survey MPS 208910
2009 09 16.43999 03 22 28.84 +17 50 26.3 20.2 V G96 – Mt. Lemmon Survey MPS 294983
2009 09 16.44700 03 22 28.95 +17 50 25.7 20.3 V G96 – Mt. Lemmon Survey MPS 294983
2009 09 16.45390 03 22 29.06 +17 50 25.4 20.3 V G96 – Mt. Lemmon Survey MPS 294983
2009 09 16.46080 03 22 29.13 +17 50 25.0 20.5 V G96 – Mt. Lemmon Survey MPS 294983
2009 10 14.29624 03 18 59.54 +16 32 15.2 20.0 V 703 – Catalina Sky Survey MPS 298294
2009 10 14.30354 03 18 59.36 +16 32 13.4 20.6 V 703 – Catalina Sky Survey MPS 298294
2009 10 14.31089 03 18 59.00 +16 32 13.0 19.6 V 703 – Catalina Sky Survey MPS 298294
2009 10 14.31818 03 18 58.64 +16 32 08.3 20.1 V 703 – Catalina Sky Survey MPS 298294
2009 10 21.32233 03 14 42.82 +15 58 20.6 20.0 V 703 – Catalina Sky Survey MPS 299351
2009 10 21.33038 03 14 42.46 +15 58 18.3 19.5 V 703 – Catalina Sky Survey MPS 299351
2009 10 21.33846 03 14 42.03 +15 58 14.5 19.6 V 703 – Catalina Sky Survey MPS 299351
2009 10 21.34657 03 14 41.71 +15 58 13.4 19.7 V 703 – Catalina Sky Survey MPS 299351
2009 10 23.36353 03 13 16.14 +15 47 40.4 19.7 V G96 – Mt. Lemmon Survey MPS 300643
2009 10 23.36966 03 13 15.85 +15 47 38.6 19.6 V G96 – Mt. Lemmon Survey MPS 300643
2009 10 23.37586 03 13 15.56 +15 47 36.5 19.5 V G96 – Mt. Lemmon Survey MPS 300643
2009 10 23.38193 03 13 15.27 +15 47 34.6 19.5 V G96 – Mt. Lemmon Survey MPS 300643
2009 10 24.30887 03 12 34.66 +15 42 37.8 19.3 V 703 – Catalina Sky Survey MPS 300643
2009 10 24.31933 03 12 34.16 +15 42 34.9 19.4 V 703 – Catalina Sky Survey MPS 300643
2009 10 24.32984 03 12 33.58 +15 42 31.0 19.5 V 703 – Catalina Sky Survey MPS 300643
2009 10 24.34034 03 12 33.12 +15 42 27.9 19.3 V 703 – Catalina Sky Survey MPS 300643
2009 10 26.30060 03 11 03.91 +15 31 50.0 19.8 V 691 – Steward Observatory, Kitt Peak-Spacewatch MPS 300643
2009 10 26.31779 03 11 03.07 +15 31 45.2 19.5 V 691 – Steward Observatory, Kitt Peak-Spacewatch MPS 300643
2009 10 26.33499 03 11 02.22 +15 31 38.8 19.8 V 691 – Steward Observatory, Kitt Peak-Spacewatch MPS 300643
2009 11 08.33243 03 00 07.34 +14 17 39.6 19.1 V G96 – Mt. Lemmon Survey MPS 303148
2009 11 08.33818 03 00 07.02 +14 17 37.6 19.0 V G96 – Mt. Lemmon Survey MPS 303148
2009 11 08.34380 03 00 06.73 +14 17 35.7 19.1 V G96 – Mt. Lemmon Survey MPS 303148
2009 11 08.34958 03 00 06.40 +14 17 33.7 19.2 V G96 – Mt. Lemmon Survey MPS 303148
2009 11 11.86171 02 57 03.86 +13 57 35.8 19.0 V J75 – OAM Observatory, La Sagra MPS 303148
2009 11 11.87353 02 57 03.18 +13 57 31.8 18.8 V J75 – OAM Observatory, La Sagra MPS 303148
2009 11 11.88535 02 57 02.57 +13 57 28.9 18.1 V J75 – OAM Observatory, La Sagra MPS 303148
2009 11 17.30266 02 52 28.45 +13 27 56.1 19.1 V G96 – Mt. Lemmon Survey MPS 304709
2009 11 17.31023 02 52 28.02 +13 27 53.5 19.2 V G96 – Mt. Lemmon Survey MPS 304709
2009 11 17.31787 02 52 27.66 +13 27 51.0 19.3 V G96 – Mt. Lemmon Survey MPS 304709
2009 11 17.32551 02 52 27.26 +13 27 48.3 19.3 V G96 – Mt. Lemmon Survey MPS 304709
2009 11 20.18355 02 50 10.51 +13 13 07.4 19.9   704 – Lincoln Laboratory ETS, New Mexico MPS 306571
2009 11 20.19577 02 50 09.92 +13 13 04.8 19.7   704 – Lincoln Laboratory ETS, New Mexico MPS 306571
2009 11 20.20817 02 50 09.25 +13 13 01.0 20.0   704 – Lincoln Laboratory ETS, New Mexico MPS 306571
2009 11 20.22037 02 50 08.71 +13 12 57.4 19.9   704 – Lincoln Laboratory ETS, New Mexico MPS 306571
2009 11 20.23258 02 50 08.07 +13 12 52.4 20.4   704 – Lincoln Laboratory ETS, New Mexico MPS 306571
